Location: Geremba
(10.4250°N, 67.2394°W)
Time: 10:35:32
(UTC+00:00)

SL-16 R/B - Pass Details

Date: 23 May 2024
Orbit: 985 x 1007 km, 99.7° (Epoch: 20 June)

Event Time Altitude Azimuth Distance (km) Brightness Sun altitude
Exits shadow 08:46:58 16° 291° (WNW) 2,371 4.1 -18.7°
Drops below altitude 10° 08:48:43 10° 305° (NW) 2,774 4.6 -18.3°
Sets 08:51:53 0° 321° (NW) 3,725 5.4 -17.6°
